{"data":{"norad_id":45710,"epoch":"2026-09-20T04:46:46.452864Z","epoch_age_seconds":44305,"freshness":"FRESH","line1":"1 45710U 20035BF  26263.19914876  .00099039  00000+0  43030-3 0  9993","line2":"2 45710  53.0365 140.9481 0006118 104.7650 255.4050 15.84041847349893","mean_motion":15.84041847,"eccentricity":0.0006118,"inclination_deg":53.0365,"raan_deg":140.9481,"arg_perigee_deg":104.765,"mean_anomaly_deg":255.405,"bstar":0.0004303,"rev_number":34989,"period_min":90.906689285211,"perigee_km":314.92669921144,"apogee_km":323.12134543836,"semimajor_km":6697.1610223249,"source":"CELESTRAK","updated_at":"2026-09-20T09:00:38.454756Z"}}